Regional Weather Roundup
Issued by NWS Charleston, WV

Home | Current Version | Previous Version | Graphics & Text | Print | Product List | Glossary On
Versions: 1 2 3 4 5 6 7 8 9 10 11 12 13 14 15 16 17 18 19 20 21 22 23 24 25 26 27 28 29 30 31 32 33 34 35 36 37 38 39 40 41 42 43 44 45 46 47 48 49 50
000
ASUS41 KRLX 010910
RWRRLX
West Virginia Regional Weather Roundup
National Weather Service Charleston WV
400 AM EST SUN MAR 01 2015

Note: "fair" indicates few or no clouds below 12,000 feet with no
significant weather and/or obstructions to visibility.

WVZ003-011000-
Northern Panhandle of West Virginia

CITY           SKY/WX    TMP DP  RH WIND       PRES   REMARKS
WHEELING       LGT SNOW  21  18  88 E3        30.43F VSB 1
$$

WVZ009-011000-
Northwest West Virginia

CITY           SKY/WX    TMP DP  RH WIND       PRES   REMARKS
PARKERSBURG    CLOUDY    30  11  45 N5        30.48F
$$

WVZ006-011000-
Western West Virginia

CITY           SKY/WX    TMP DP  RH WIND       PRES   REMARKS
HUNTINGTON     CLOUDY    30  15  53 CALM      30.43F
$$

WVZ015-011000-
West Central West Virginia

CITY           SKY/WX    TMP DP  RH WIND       PRES   REMARKS
CHARLESTON     CLOUDY    31  23  72 CALM      30.42F
$$

WVZ022-031-011000-
North Central West Virginia

CITY           SKY/WX    TMP DP  RH WIND       PRES   REMARKS
CLARKSBURG     CLOUDY    28  15  58 N3        30.44S
MORGANTOWN     CLOUDY    30  14  51 CALM      30.46S
$$

WVZ025-035-042-045-011000-
Southern West Virginia

CITY           SKY/WX    TMP DP  RH WIND       PRES   REMARKS
BECKLEY        CLOUDY    30  16  56 SE8       30.40F
LOGAN          CLOUDY    37  21  52 CALM      30.37S
BLUEFIELD      CLOUDY    33  19  56 S10G18    30.40F
LEWISBURG      CLOUDY    27  17  65 N7        30.47F
$$

WVZ047-011000-
Northern Mountains of West Virginia

CITY           SKY/WX    TMP DP  RH WIND       PRES   REMARKS
ELKINS         CLOUDY    32  19  58 VRB5      30.43F
$$

WVZ052-011000-
Eastern Panhandle of West Virginia

CITY           SKY/WX    TMP DP  RH WIND       PRES   REMARKS
MARTINSBURG    CLOUDY    25  10  53 CALM      30.59F
PETERSBURG     CLOUDY    25  14  62 CALM      30.55F
$$


USA.gov is the U.S. government's official web portal to all federal, state and local government web resources and services.